Weather History for KLJF - June, 2011

Change the Weather History Date:

Sunday, June 26, 2011

  Actual Average Record
Temperature  
Mean Temperature 68 °F -  
Max Temperature 75 °F 81 °F 98 °F (1964)
Min Temperature 60 °F 59 °F 44 °F (1992)
Cooling Degree Days 2    
Growing Degree Days 18 (Base 50)    
Moisture  
Dew Point 63 °F    
Average Humidity 92    
Maximum Humidity 100    
Minimum Humidity 78    
Precipitation  
Precipitation 0.08 in - - ()
Sea Level Pressure  
Sea Level Pressure 29.87 in    
Wind  
Wind Speed 6 mph (SSE)    
Max Wind Speed 14 mph    
Max Gust Speed 17 mph    
Visibility 9 miles    
Events Rain , Thunderstorm    
Averages and records for this station are not official NWS values.
T = Trace of Precipitation, MM = Missing Value Source: NWS Daily Summary

Daily Weather History Graph

Daily Weather History Graph

Search for Another Location

Airport or City:

Trip Planner

Search our weather history database for the weather conditions in past years. The results will help you decide how hot, cold, wet, or windy it might be!

Date:

Astronomy

Jun. 26, 2011 Rise Set
Actual Time 5:32 AM CDT 9:09 PM CDT
Civil Twilight 4:54 AM CDT 9:46 PM CDT
Nautical Twilight 4:04 AM CDT 10:36 PM CDT
Astronomical Twilight 2:58 AM CDT 11:42 PM CDT
Moon 1:56 AM CDT (6/26) 4:54 PM CDT (6/26)
Length of Visible Light 16h 51m
Length of Day
15h 36m
Waning Crescent, 21% of the Moon is Illuminated
Jun 26
Waning Crescent
Jul 1
New
Jul 8
First Quarter
Jul 15
Full
Jul 23
Last Quarter

Hourly Weather History & Observations

Time (CDT) Temp. Dew Point Humidity Pressure Visibility Wind Dir Wind Speed Gust Speed Precip Events Conditions
12:13 AM 62.6 °F 60.8 °F 94% 29.90 in 10.0 mi SE 6.9 mph - N/A   Mostly Cloudy
12:33 AM 60.8 °F 60.8 °F 100% 29.89 in 10.0 mi SE 8.1 mph - N/A   Scattered Clouds
12:53 AM 60.8 °F 60.8 °F 100% 29.90 in 10.0 mi SE 4.6 mph - N/A   Clear
1:32 AM 60.8 °F 60.8 °F 100% 29.91 in 10.0 mi Calm Calm - N/A   Clear
1:53 AM 60.8 °F 60.8 °F 100% 29.90 in 10.0 mi SE 4.6 mph - N/A   Clear
2:13 AM 60.8 °F 60.8 °F 100% 29.90 in 10.0 mi Calm Calm - N/A   Clear
2:33 AM 60.8 °F 60.8 °F 100% 29.90 in 10.0 mi ESE 3.5 mph - N/A   Clear
2:53 AM 60.8 °F 60.8 °F 100% 29.90 in 10.0 mi SE 4.6 mph - N/A   Clear
3:13 AM 60.8 °F 60.8 °F 100% 29.89 in 10.0 mi SE 5.8 mph - N/A   Clear
3:33 AM 60.8 °F 60.8 °F 100% 29.89 in 10.0 mi SE 5.8 mph - N/A   Clear
3:53 AM 60.8 °F 60.8 °F 100% 29.87 in 10.0 mi SE 8.1 mph - N/A   Clear
4:13 AM 60.8 °F 60.8 °F 100% 29.87 in 10.0 mi SSE 5.8 mph - N/A   Clear
4:33 AM 60.8 °F 60.8 °F 100% 29.88 in 10.0 mi SE 4.6 mph - N/A   Mostly Cloudy
4:53 AM 60.8 °F 60.8 °F 100% 29.89 in 10.0 mi SSE 4.6 mph - N/A   Overcast
5:12 AM 62.6 °F 60.8 °F 94% 29.90 in 10.0 mi SSE 3.5 mph - N/A   Overcast
5:33 AM 62.6 °F 60.8 °F 94% 29.90 in 10.0 mi SSE 6.9 mph - N/A   Overcast
5:53 AM 62.6 °F 60.8 °F 94% 29.90 in 10.0 mi SSE 4.6 mph - N/A   Overcast
6:13 AM 62.6 °F 60.8 °F 94% 29.90 in 7.0 mi SSE 4.6 mph - N/A   Overcast
6:33 AM 62.6 °F 60.8 °F 94% 29.91 in 7.0 mi SSE 3.5 mph - N/A   Overcast
6:53 AM 62.6 °F 60.8 °F 94% 29.93 in 7.0 mi South 3.5 mph - N/A Thunderstorm Overcast
7:13 AM 62.6 °F 60.8 °F 94% 29.94 in 7.0 mi Calm Calm - N/A   Overcast
7:33 AM 62.6 °F 60.8 °F 94% 29.90 in 7.0 mi SE 9.2 mph - N/A   Overcast
7:53 AM 60.8 °F 60.8 °F 100% 29.88 in 7.0 mi SE 10.4 mph 16.1 mph N/A   Mostly Cloudy
8:12 AM 60.8 °F 60.8 °F 100% 29.88 in 5.0 mi SE 9.2 mph - N/A Rain , Thunderstorm Light Thunderstorms and Rain
8:33 AM 60.8 °F 60.8 °F 100% 29.89 in 4.0 mi SSE 5.8 mph - 0.04 in Rain Rain
8:45 AM 60.8 °F 60.8 °F 100% 29.88 in 4.0 mi SE 13.8 mph - 0.07 in Rain Light Rain
8:53 AM 60.8 °F 60.8 °F 100% 29.88 in 5.0 mi SE 11.5 mph - 0.01 in Rain Light Rain
9:33 AM 60.8 °F 60.8 °F 100% 29.89 in 5.0 mi South 6.9 mph - 0.01 in   Mostly Cloudy
9:45 AM 62.6 °F 60.8 °F 94% 29.88 in 7.0 mi SSE 10.4 mph - 0.01 in   Overcast
9:53 AM 62.6 °F 60.8 °F 94% 29.86 in 7.0 mi SSE 10.4 mph 16.1 mph N/A   Overcast
10:12 AM 64.4 °F 62.6 °F 94% 29.85 in 7.0 mi SSE 9.2 mph - N/A   Overcast
10:33 AM 64.4 °F 62.6 °F 94% 29.85 in 10.0 mi SSE 8.1 mph - N/A   Overcast
10:53 AM 64.4 °F 62.6 °F 94% 29.85 in 7.0 mi SSE 8.1 mph 17.3 mph N/A   Overcast
11:13 AM 64.4 °F 62.6 °F 94% 29.87 in 7.0 mi SSE 10.4 mph 17.3 mph N/A   Overcast
11:33 AM 64.4 °F 62.6 °F 94% 29.88 in 10.0 mi SSE 5.8 mph 9.2 mph N/A   Overcast
12:12 PM 66.2 °F 62.6 °F 88% 29.86 in 10.0 mi SSE 6.9 mph - N/A   Overcast
12:33 PM 66.2 °F 62.6 °F 88% 29.85 in 10.0 mi SSE 8.1 mph - N/A   Overcast
12:53 PM 66.2 °F 62.6 °F 88% 29.85 in 10.0 mi SSE 8.1 mph - N/A   Overcast
1:12 PM 66.2 °F 64.4 °F 94% 29.86 in 10.0 mi SSE 6.9 mph - N/A   Overcast
1:33 PM 68.0 °F 64.4 °F 88% 29.86 in 10.0 mi South 6.9 mph - N/A   Overcast
1:53 PM 68.0 °F 64.4 °F 88% 29.88 in 10.0 mi South 5.8 mph - N/A   Overcast
2:13 PM 68.0 °F 64.4 °F 88% 29.86 in 10.0 mi SSE 3.5 mph - N/A   Overcast
2:33 PM 69.8 °F 64.4 °F 83% 29.85 in 10.0 mi SSE 6.9 mph - N/A   Overcast
2:53 PM 71.6 °F 64.4 °F 78% 29.83 in 10.0 mi SE 9.2 mph - N/A   Mostly Cloudy
3:13 PM 69.8 °F 64.4 °F 83% 29.83 in 10.0 mi Calm Calm - N/A   Mostly Cloudy
3:33 PM 71.6 °F 66.2 °F 83% 29.82 in 10.0 mi SE 6.9 mph - N/A   Scattered Clouds
3:53 PM 71.6 °F 64.4 °F 78% 29.82 in 10.0 mi SSE 6.9 mph - N/A   Scattered Clouds
4:13 PM 71.6 °F 66.2 °F 83% 29.82 in 10.0 mi SSE 5.8 mph - N/A   Mostly Cloudy
4:33 PM 73.4 °F 66.2 °F 78% 29.82 in 10.0 mi SE 8.1 mph - N/A   Scattered Clouds
5:13 PM 73.4 °F 66.2 °F 78% 29.83 in 10.0 mi SSE 4.6 mph - N/A   Mostly Cloudy
5:33 PM 73.4 °F 66.2 °F 78% 29.83 in 10.0 mi Calm Calm - N/A   Scattered Clouds
5:53 PM 73.4 °F 68.0 °F 83% 29.83 in 10.0 mi Calm Calm - N/A   Mostly Cloudy
6:13 PM 75.2 °F 68.0 °F 78% 29.82 in 10.0 mi Calm Calm - N/A   Mostly Cloudy
6:33 PM 75.2 °F 68.0 °F 78% 29.81 in 10.0 mi Calm Calm - N/A   Scattered Clouds
6:52 PM 73.4 °F 68.0 °F 83% 29.81 in 10.0 mi Calm Calm - N/A   Clear
7:13 PM 73.4 °F 68.0 °F 83% 29.78 in 10.0 mi SE 5.8 mph - N/A   Clear
7:33 PM 73.4 °F 68.0 °F 83% 29.76 in 10.0 mi SE 6.9 mph 10.4 mph N/A   Clear
7:53 PM 73.4 °F 68.0 °F 83% 29.77 in 10.0 mi SSE 5.8 mph - N/A   Clear
8:13 PM 73.4 °F 68.0 °F 83% 29.76 in 10.0 mi SE 4.6 mph - N/A   Clear
8:33 PM 71.6 °F 68.0 °F 88% 29.76 in 10.0 mi SE 3.5 mph - N/A   Clear
8:53 PM 71.6 °F 66.2 °F 83% 29.74 in 10.0 mi ESE 4.6 mph - N/A   Clear
9:13 PM 71.6 °F 66.2 °F 83% 29.75 in 10.0 mi SE 4.6 mph - N/A   Clear
9:33 PM 71.6 °F 66.2 °F 83% 29.77 in 10.0 mi SE 3.5 mph - N/A   Clear
9:53 PM 69.8 °F 66.2 °F 88% 29.76 in 10.0 mi SE 3.5 mph - N/A   Clear
10:13 PM 71.6 °F 66.2 °F 83% 29.77 in 10.0 mi SE 4.6 mph - N/A   Clear
10:33 PM 71.6 °F 66.2 °F 83% 29.77 in 10.0 mi SE 5.8 mph - N/A   Scattered Clouds
10:53 PM 71.6 °F 66.2 °F 83% 29.76 in 10.0 mi SE 5.8 mph - N/A   Scattered Clouds
11:12 PM 71.6 °F 66.2 °F 83% 29.76 in 10.0 mi SE 5.8 mph - N/A   Clear
11:33 PM 71.6 °F 66.2 °F 83% 29.76 in 10.0 mi SE 3.5 mph - N/A   Scattered Clouds
11:53 PM 68.0 °F 66.2 °F 94% 29.75 in 10.0 mi ESE 6.9 mph - N/A   Scattered Clouds